Zurück zum Katalog

STARLINK-36500

AktivKommunikationVLEO
NORAD 67320·PAYLOAD·🇺🇸 United States

Gestartet Jan 4, 2026 von Cape Canaveral Space Force Station

Loading…

Nächste Überflüge (nächste 24 Stunden)

TLE

AktuellSource: CelesTrak SupGP

Epoche: Sep 14, 2026, 21:07 UTC

1 67320C 26002R   26257.88034722 -.00019896  00000+0 -72064-3 0  2577
2 67320  43.0019 337.2277 0001299 271.6007 262.3707 15.27588242    14

Verfolge STARLINK-36500 in Echtzeit mit AllMySat

Download on the App Store